Bremerton, WA

5:10 AM PDT on October 22, 2019 (GMT -0700)
Bremerton National

Weather History for KPWT - August, 2019

Change the Weather History Date:

Wednesday, August 14, 2019

  Actual Average Record
Temperature  
Mean Temperature 68 °F -  
Max Temperature 82 °F 74 °F 93 °F (2010)
Min Temperature 54 °F 50 °F 46 °F (2007)
Cooling Degree Days 2    
Growing Degree Days 18 (Base 50)    
Moisture  
Dew Point 54 °F    
Average Humidity 63    
Maximum Humidity 93    
Minimum Humidity 41    
Precipitation  
Precipitation 0.00 in - - ()
Sea Level Pressure  
Sea Level Pressure 30.20 in    
Wind  
Wind Speed 2 mph (ENE)    
Max Wind Speed 10 mph    
Max Gust Speed -    
Visibility 10 miles    
Events      
Averages and records for this station are not official NWS values.
T = Trace of Precipitation, MM = Missing Value Source: NWS Daily Summary

Daily Weather History Graph

Daily Weather History Graph

Search for Another Location

Airport or City:

Astronomy

Aug. 14, 2019 Rise Set
Actual Time 6:05 AM PDT 8:24 PM PDT
Civil Twilight 5:31 AM PDT 8:58 PM PDT
Nautical Twilight 4:49 AM PDT 9:40 PM PDT
Astronomical Twilight 4:00 AM PDT 10:28 PM PDT
Moon 8:26 PM PDT (8/14) 5:01 AM PDT (8/14)
Length of Visible Light 15h 27m
Length of Day
14h 19m
Full, 100% of the Moon is Illuminated
Aug 14
Full
Aug 15
Full
Aug 23
Last Quarter
Aug 30
New
Sep 5
First Quarter

Hourly Weather History & Observations

Time (PDT) Temp. Heat Index Dew Point Humidity Pressure Visibility Wind Dir Wind Speed Gust Speed Precip Events Conditions
12:56 AM 62.1 °F - 51.1 °F 67% 30.16 in 10.0 mi Calm Calm - N/A   Clear
1:56 AM 59.0 °F - 51.1 °F 75% 30.17 in 10.0 mi Calm Calm - N/A   Clear
2:56 AM 57.9 °F - 52.0 °F 81% 30.18 in 10.0 mi Calm Calm - N/A   Clear
3:56 AM 54.0 °F - 51.1 °F 90% 30.19 in 10.0 mi Calm Calm - N/A   Clear
4:56 AM 55.9 °F - 52.0 °F 87% 30.19 in 10.0 mi Calm Calm - N/A   Clear
5:56 AM 54.0 °F - 52.0 °F 93% 30.20 in 10.0 mi Calm Calm - N/A   Clear
6:56 AM 55.0 °F - 52.0 °F 89% 30.21 in 10.0 mi Calm Calm - N/A   Clear
7:56 AM 66.9 °F - 55.0 °F 66% 30.21 in 10.0 mi Calm Calm - N/A   Clear
8:56 AM 70.0 °F - 55.0 °F 59% 30.22 in 10.0 mi Calm Calm - N/A   Clear
9:56 AM 72.0 °F - 55.0 °F 55% 30.23 in 10.0 mi West 3.5 mph - N/A   Clear
10:56 AM 73.9 °F - 55.0 °F 52% 30.22 in 10.0 mi Calm Calm - N/A   Clear
11:56 AM 77.0 °F - 55.0 °F 47% 30.21 in 10.0 mi SE 4.6 mph - N/A   Clear
12:56 PM 81.0 °F 81.0 °F 57.0 °F 44% 30.20 in 10.0 mi Variable 3.5 mph - N/A   Clear
1:56 PM 79.0 °F - 55.0 °F 44% 30.20 in 10.0 mi Calm Calm - N/A   Partly Cloudy
2:56 PM 81.0 °F 80.7 °F 55.0 °F 41% 30.19 in 5.0 mi NE 6.9 mph - N/A   Haze
3:56 PM 80.1 °F 80.2 °F 55.9 °F 43% 30.19 in 10.0 mi ENE 10.4 mph - N/A   Clear
4:56 PM 79.0 °F - 57.0 °F 47% 30.18 in 10.0 mi ENE 9.2 mph - N/A   Clear
5:56 PM 78.1 °F - 55.9 °F 46% 30.18 in 10.0 mi ENE 8.1 mph - N/A   Clear
6:56 PM 77.0 °F - 55.0 °F 47% 30.19 in 10.0 mi ENE 9.2 mph - N/A   Clear
7:56 PM 73.0 °F - 55.9 °F 55% 30.19 in 10.0 mi ENE 4.6 mph - N/A   Clear
8:56 PM 71.1 °F - 55.0 °F 57% 30.20 in 10.0 mi Calm Calm - N/A   Clear
9:56 PM 66.0 °F - 55.9 °F 70% 30.21 in 10.0 mi Calm Calm - N/A   Clear
10:56 PM 64.9 °F - 57.0 °F 75% 30.22 in 10.0 mi Calm Calm - N/A   Mostly Cloudy
11:56 PM 62.1 °F - 55.0 °F 78% 30.23 in 10.0 mi Calm Calm - N/A   Partly Cloudy